Location: Ariel
(45.9570°N, 122.5700°W)
Time: 04:20:41
(UTC-07:00)

Vanguard 3 - Visible Passes

Search period start: 20 July 2019 00:00
Search period end: 30 July 2019 00:00
Orbit: 507 x 3264 km, 33.4° (Epoch: 19 July)

Date Brightness Start Highest point End Pass type
(mag) Time Alt. Az. Time Alt. Az. Time Alt. Az.
20 Jul 9.9 02:49:22 20° S 02:54:32 26° SE 03:06:55 10° E visible
20 Jul 10.1 04:54:29 10° SW 05:07:00 48° SSE 05:24:56 10° E visible
21 Jul 10.3 01:39:20 14° SE 01:40:51 14° SE 01:47:11 10° ESE visible
21 Jul 9.8 03:43:53 19° SSW 03:51:51 39° SSE 04:07:29 10° E visible
22 Jul 9.7 02:33:51 23° SSE 02:37:31 27° SE 02:49:27 10° E visible
22 Jul 9.9 04:38:24 11° SW 04:49:51 48° SSE 05:07:20 10° E visible
23 Jul 10.1 01:23:50 15° SE 01:23:57 15° SE 01:30:13 10° ESE visible
23 Jul 9.5 03:28:23 23° SSW 03:34:51 39° SSE 03:49:51 10° E visible
24 Jul 9.5 02:18:22 26° SSE 02:20:39 28° SE 02:31:59 10° E visible
24 Jul 9.8 04:22:55 13° SW 04:32:50 48° SSE 04:49:39 10° ESE visible
25 Jul 10.1 01:08:22 15° SE 01:08:22 15° SE 01:13:14 10° ESE visible
25 Jul 9.3 03:12:56 27° SSW 03:18:00 40° SSE 03:32:13 10° E visible
26 Jul 9.4 02:02:56 28° SSE 02:03:55 28° SSE 02:14:31 10° E visible
26 Jul 9.6 04:07:29 16° SW 04:15:56 47° S 04:31:55 10° ESE visible
27 Jul 10.0 00:53:00 14° ESE 00:53:00 14° ESE 00:56:13 10° ESE visible
27 Jul 9.1 02:57:33 30° SSW 03:01:16 39° SSE 03:14:34 10° E visible
27 Jul 9.8 05:03:27 10° WSW 05:14:18 48° S 05:31:12 10° ESE visible
28 Jul 9.3 01:47:38 28° SE 01:47:38 28° SE 01:57:07 10° E visible
28 Jul 9.4 03:52:11 20° SW 03:59:11 46° S 04:14:10 10° ESE visible
29 Jul 10.1 00:37:45 12° ESE 00:37:45 12° ESE 00:39:14 10° ESE visible
29 Jul 8.9 02:42:19 34° S 02:44:41 38° SSE 02:56:58 10° ESE visible
29 Jul 9.6 04:47:30 10° WSW 04:57:27 45° S 05:13:18 10° ESE visible
